Hartford, CT

12:09 AM EDT on May 28, 2017 (GMT -0400)
Hartford-brainard

Weather History for KHFD - February, 2014

Change the Weather History Date:

Wednesday, February 26, 2014

  Actual Average Record
Temperature  
Mean Temperature 22 °F -  
Max Temperature 30 °F 39 °F 64 °F (1957)
Min Temperature 14 °F 22 °F 3 °F (1990)
Degree Days  
Heating Degree Days 43    
Moisture  
Dew Point 4 °F    
Average Humidity 50    
Maximum Humidity 80    
Minimum Humidity 27    
Precipitation  
Precipitation 0.00 in - - ()
Sea Level Pressure  
Sea Level Pressure 29.88 in    
Wind  
Wind Speed 4 mph (West)    
Max Wind Speed 14 mph    
Max Gust Speed 25 mph    
Visibility 10 miles    
Events      
Averages and records for this station are not official NWS values.
T = Trace of Precipitation, MM = Missing Value Source: NWS Daily Summary

Daily Weather History Graph

Daily Weather History Graph

Search for Another Location

Airport or City:

Trip Planner

Search our weather history database for the weather conditions in past years. The results will help you decide how hot, cold, wet, or windy it might be!

Date:

Astronomy

Feb. 26, 2014 Rise Set
Actual Time 6:30 AM EST 5:37 PM EST
Civil Twilight 6:02 AM EST 6:05 PM EST
Nautical Twilight 5:29 AM EST 6:37 PM EST
Astronomical Twilight 4:57 AM EST 7:09 PM EST
Moon 4:15 AM EST (2/26) 2:47 PM EST (2/26)
Length of Visible Light 12h 03m
Length of Day
11h 07m
Waning Crescent, 10% of the Moon is Illuminated
Feb 26
Waning Crescent
Mar 1
New
Mar 8
First Quarter
Mar 16
Full
Mar 23
Last Quarter

Hourly Weather History & Observations

Time (EST) Temp. Windchill Dew Point Humidity Pressure Visibility Wind Dir Wind Speed Gust Speed Precip Events Conditions
12:53 AM 18.0 °F - 8.1 °F 65% 29.97 in 10.0 mi Calm Calm - N/A   Clear
1:53 AM 16.0 °F - 9.0 °F 74% 29.97 in 10.0 mi Calm Calm - N/A   Clear
2:53 AM 16.0 °F 10.4 °F 9.0 °F 74% 29.95 in 10.0 mi South 3.5 mph - N/A   Clear
3:53 AM 14.0 °F - 9.0 °F 80% 29.93 in 10.0 mi Calm Calm - N/A   Clear
4:53 AM 14.0 °F - 9.0 °F 80% 29.92 in 10.0 mi Calm Calm - N/A   Clear
5:53 AM 14.0 °F - 9.0 °F 80% 29.91 in 10.0 mi Calm Calm - N/A   Clear
6:53 AM 16.0 °F - 10.0 °F 77% 29.89 in 8.0 mi Calm Calm - N/A   Clear
7:53 AM 18.0 °F 11.1 °F 9.0 °F 68% 29.90 in 10.0 mi South 4.6 mph - N/A   Overcast
8:53 AM 21.0 °F 14.6 °F 10.0 °F 63% 29.89 in 10.0 mi South 4.6 mph - N/A   Clear
9:53 AM 25.0 °F 20.7 °F 9.0 °F 51% 29.89 in 10.0 mi Variable 3.5 mph - N/A   Partly Cloudy
10:53 AM 27.0 °F 17.3 °F 8.1 °F 45% 29.89 in 10.0 mi West 10.4 mph 19.6 mph N/A   Clear
11:53 AM 28.9 °F 18.6 °F 10.0 °F 45% 29.86 in 10.0 mi West 12.7 mph 20.7 mph N/A   Partly Cloudy
12:53 PM 30.0 °F 20.5 °F 10.0 °F 43% 29.82 in 10.0 mi West 11.5 mph 21.9 mph N/A   Overcast
1:53 PM 30.0 °F 20.5 °F 8.1 °F 40% 29.80 in 10.0 mi West 11.5 mph 20.7 mph N/A   Mostly Cloudy
2:53 PM 30.9 °F 22.2 °F 3.9 °F 32% 29.80 in 10.0 mi West 10.4 mph 21.9 mph N/A   Scattered Clouds
3:53 PM 30.0 °F 19.5 °F -0.9 °F 27% 29.81 in 10.0 mi West 13.8 mph 25.3 mph N/A   Clear
4:53 PM 28.0 °F 18.1 °F -0.0 °F 30% 29.82 in 10.0 mi NW 11.5 mph 18.4 mph N/A   Clear
5:53 PM 24.1 °F 13.1 °F -4.0 °F 29% 29.84 in 10.0 mi NW 11.5 mph 20.7 mph N/A   Clear
6:53 PM 21.9 °F 9.8 °F -7.1 °F 28% 29.86 in 10.0 mi NNW 12.7 mph - N/A   Clear
7:53 PM 19.9 °F 7.9 °F -7.1 °F 30% 29.87 in 10.0 mi North 11.5 mph - N/A   Clear
8:53 PM 19.0 °F 7.5 °F -6.0 °F 33% 29.89 in 10.0 mi NNW 10.4 mph - N/A   Clear
9:53 PM 17.1 °F 8.7 °F -7.1 °F 34% 29.91 in 10.0 mi NNW 5.8 mph - N/A   Clear
10:53 PM 16.0 °F - -7.1 °F 36% 29.91 in 10.0 mi Calm Calm - N/A   Clear
11:53 PM 14.0 °F - -5.1 °F 43% 29.92 in 10.0 mi Calm Calm - N/A   Clear